TimeEST,TemperatureF,Dew PointF,Humidity,Sea Level PressureIn,VisibilityMPH,Wind Direction,Wind SpeedMPH,Gust SpeedMPH,PrecipitationIn,Events,Conditions,WindDirDegrees,DateUTC
12:56 AM,39.0,37.0,93,29.49,10.0,NNW,4.6,-,N/A,,Overcast,330,2013-03-01 05:56:00
1:47 AM,39.2,37.4,93,29.48,10.0,North,8.1,-,N/A,,Overcast,350,2013-03-01 06:47:00
2:56 AM,39.0,37.0,93,29.49,10.0,NNW,10.4,17.3,N/A,,Overcast,340,2013-03-01 07:56:00
3:56 AM,37.9,36.0,93,29.51,10.0,North,11.5,-,N/A,,Overcast,350,2013-03-01 08:56:00
4:51 AM,37.4,35.6,93,29.51,10.0,North,13.8,20.7,N/A,,Overcast,360,2013-03-01 09:51:00
4:56 AM,37.9,35.1,89,29.52,10.0,North,11.5,20.7,N/A,,Overcast,360,2013-03-01 09:56:00
7:56 AM,39.0,33.1,79,29.54,10.0,NNW,12.7,23.0,N/A,,Clear,340,2013-03-01 12:56:00
8:56 AM,41.0,34.0,76,29.55,10.0,NNW,15.0,23.0,N/A,,Scattered Clouds,340,2013-03-01 13:56:00
9:09 AM,39.2,33.8,81,29.55,10.0,NNW,15.0,28.8,N/A,,Mostly Cloudy,340,2013-03-01 14:09:00
10:56 AM,42.1,32.0,67,29.59,10.0,North,12.7,23.0,N/A,,Overcast,350,2013-03-01 15:56:00
12:56 PM,41.0,30.9,67,29.58,10.0,North,17.3,26.5,N/A,,Mostly Cloudy,360,2013-03-01 17:56:00
1:56 PM,41.0,30.9,67,29.58,10.0,North,13.8,21.9,N/A,,Overcast,350,2013-03-01 18:56:00
2:56 PM,39.9,32.0,73,29.59,10.0,North,9.2,-,N/A,,Overcast,360,2013-03-01 19:56:00
3:56 PM,39.9,32.0,73,29.60,10.0,North,10.4,-,N/A,,Overcast,10,2013-03-01 20:56:00
5:31 PM,39.2,32.0,75,29.63,10.0,North,9.2,-,N/A,,Overcast,360,2013-03-01 22:31:00
5:48 PM,37.4,32.0,81,29.63,10.0,North,9.2,-,N/A,,Overcast,10,2013-03-01 22:48:00
5:56 PM,37.9,32.0,79,29.64,10.0,North,5.8,-,N/A,,Overcast,360,2013-03-01 22:56:00
6:56 PM,37.9,33.1,83,29.65,10.0,North,6.9,-,N/A,,Overcast,350,2013-03-01 23:56:00
7:56 PM,37.9,33.1,83,29.65,10.0,North,8.1,-,N/A,,Overcast,360,2013-03-02 00:56:00
8:56 PM,37.9,33.1,83,29.65,10.0,North,5.8,-,0.00,Rain,Light Rain,350,2013-03-02 01:56:00
9:56 PM,37.9,33.1,83,29.65,10.0,NW,3.5,-,0.00,,Overcast,320,2013-03-02 02:56:00
10:03 PM,37.4,33.8,87,29.64,10.0,NW,4.6,-,N/A,,Overcast,310,2013-03-02 03:03:00
10:56 PM,37.9,32.0,79,29.64,10.0,NNW,6.9,-,N/A,,Overcast,330,2013-03-02 03:56:00
11:56 PM,37.9,30.0,73,29.64,10.0,North,8.1,-,N/A,,Overcast,350,2013-03-02 04:56:00